Terminal Aerodrome Forecast
Issued by NWS

Home | Current Version | Previous Version | Text Only | Print | Product List | Glossary On
Versions: 1 2 3 4 5 6 7 8 9 10 11 12 13 14 15 16 17 18
000
FTUS43 KLSX 221129
TAFSUS
TAF
KSUS 221129Z 2212/2312 VRB06KT 5SM -SHRA SCT030 OVC045
      TEMPO 2212/2214 3SM -TSRA BR OVC030CB
     FM221600 30008KT P6SM OVC030
     FM221900 31010KT P6SM BKN035
     FM222300 33010KT P6SM SCT130
     FM230200 35006KT P6SM FEW250=

USA.gov is the U.S. government's official web portal to all federal, state and local government web resources and services.